Location: Unspecified
(0.0000°N, 0.0000°E)
Time: 00:20:40
(UTC+00:00)

Explorer 11/Cluster Stage 4 - Pass Details

Date: 19 December 2018
Orbit: 467 x 1260 km, 28.8° (Epoch: 18 January)

Event Time Altitude Azimuth Distance (km) Brightness Sun altitude
Rises 21:09:10 0° 261° (W) 4,151 11.0 -43.0°
Reaches altitude 10° 21:12:37 10° 271° (W) 3,118 10.1 -43.7°
Enters shadow 21:15:28 20° 286° (WNW) 2,369 9.2 -44.3°
